Location: Marengo
(51.4813°N, 109.7825°W)
Time: 23:40:59
(UTC+00:00)

Envisat - Pass Details

Date: 26 January 2022
Orbit: 764 x 765 km, 98.2° (Epoch: 22 May)

Event Time Altitude Azimuth Distance (km) Brightness Sun altitude
Rises 00:34:11 0° 209° (SSW) 3,220 7.2 -6.1°
Reaches altitude 10° 00:37:11 10° 228° (SW) 2,299 6.9 -6.5°
Maximum altitude 00:40:40 18° 272° (W) 1,790 6.0 -7.0°
Drops below altitude 10° 00:44:10 10° 316° (NW) 2,311 5.8 -7.5°
Sets 00:47:12 0° 334° (NNW) 3,243 6.3 -7.9°
